Lid_Strength_Index
4 8 8 8 12 12 14 12 10 10 8 6 6 7 8 7 9 11 1 0 -0 -0 -1 -1 -2 -2 -2 -2 -2 -2 -2 -2 -2 -2 -2 -2 -2 -2 -2 -2 -3 -3 -2 -2 -2 -2 -2 -2 -2
8 8 8 10 14 16 15 13 11 9 7 6 6 6 7 9 5 4 3 -0 -1 -1 -1 -1 -1 -2 -2 -2 -2 -2 -2 -2 -2 -2 -2 -2 -2 -2 -2 -2 -2 -2 -2 -2 -2 -2 -2 -2 -2
7 9 10 13 15 16 15 12 10 7 6 7 7 5 6 8 4 3 1 -0 -1 -1 -1 -1 -1 -2 -2 -2 -2 -2 -2 -2 -2 -2 -2 -2 -2 -2 -2 -2 -2 -2 -2 -2 -2 -2 -2 -2 -2
9 9 11 14 14 13 13 11 8 8 7 5 6 8 5 2 3 1 -0 -0 -0 -1 -1 -1 -1 -2 -2 -2 -2 -2 -2 -2 -2 -2 -2 -2 -2 -2 -2 -2 -2 -2 -2 -2 -2 -2 -2 -2 -2
9 11 14 15 14 12 12 9 7 8 8 7 6 9 7 3 1 0 0 -0 0 -0 -1 -1 -1 -2 -2 -2 -2 -2 -2 -2 -2 -2 -2 -2 -2 -2 -2 -2 -2 -2 -2 -2 -2 -2 -2 -2 -2
10 11 15 15 14 11 10 8 8 9 7 7 7 8 7 2 2 1 0 -0 -0 -0 -1 -1 0 -1 -1 -2 -2 -2 -2 -2 -2 -2 -2 -2 -2 -2 -2 -2 -2 -2 -1 -2 -2 -2 -2 -2 -2
11 13 15 15 14 11 8 8 9 8 7 7 5 9 6 4 1 0 0 0 -0 -1 -1 -1 -1 -1 0 -1 -1 -1 -2 -2 -2 -2 -2 -2 -2 -2 -2 -2 -2 -2 -2 -2 -2 -2 -2 -2 -2
11 12 14 15 14 10 9 9 8 6 7 4 4 9 8 4 1 0 1 1 0 -0 -0 -1 -1 -1 -1 -1 0 -1 -1 -1 -2 -1 -1 -1 -1 -2 -1 -1 -2 -2 -2 -2 -2 -2 -2 -2 -2
10 14 15 14 15 10 10 10 9 7 6 6 5 5 4 2 1 2 2 1 1 0 0 -1 -1 -1 -1 -1 0 0 -0 -1 -1 0 1 1 -1 -1 -1 -0 -1 -2 -2 -2 -2 -2 -2 -1 -1
12 14 13 12 14 11 10 10 9 7 7 7 6 4 3 2 2 3 3 3 2 1 1 0 -0 -1 -1 -1 -1 -1 -1 -1 -1 0 0 -0 -1 -1 -1 0 -0 -1 -1 -2 -2 -2 -1 -0 -1
13 13 13 13 12 13 10 10 8 8 8 6 7 6 4 3 3 4 4 2 2 1 1 1 1 -0 -1 -1 -1 -1 -1 -1 -1 -1 -0 -0 -0 -1 -1 -1 -1 -1 1 -0 -1 -1 -1 -1 -1
13 13 13 12 13 13 12 10 10 8 7 7 4 4 4 4 4 4 3 2 2 1 1 1 1 0 -1 -1 -0 -1 -1 -1 -1 -1 -1 -1 -0 -0 -0 -0 -0 -0 -1 -0 -0 -1 -0 -0 -0
12 12 11 11 13 13 13 11 10 9 9 5 4 4 4 4 4 3 2 2 1 2 1 1 1 1 0 0 0 -1 -1 -0 -1 -1 -1 -1 -0 0 1 1 0 0 0 -0 -0 -0 0 0 0
10 11 11 11 12 13 14 12 10 10 5 5 5 5 4 4 4 3 3 2 2 1 1 1 0 1 1 1 0 -0 -1 -1 -0 -0 -0 -0 -0 0 0 1 0 0 -0 0 0 0 0 1 1
9 11 11 11 13 14 14 14 11 10 6 6 6 5 5 4 3 3 3 3 2 1 1 1 0 -0 -0 0 0 -0 -0 -1 -1 -0 -0 0 0 1 1 0 0 0 -0 0 0 1 1 1 1
11 11 14 11 13 14 13 16 10 9 6 7 6 6 5 4 4 3 3 2 2 1 1 0 -0 0 0 0 0 0 -0 -0 -1 -0 -0 1 1 1 1 1 1 1 1 1 1 1 1 1 1
12 15 14 12 13 14 15 15 14 9 7 7 7 6 6 5 5 4 3 2 2 2 1 1 0 0 -0 -0 -0 -0 -0 -0 -0 -0 0 0 0 1 1 1 1 1 1 2 1 2 2 1 1
15 15 14 13 13 15 16 15 14 13 8 7 7 6 6 5 5 4 4 3 2 2 2 1 1 1 1 1 1 1 1 1 0 0 0 -0 -0 0 0 0 1 2 2 2 2 2 2 2 1
12 13 13 15 11 14 16 15 14 14 12 10 7 7 6 6 4 4 4 3 3 2 2 2 2 2 2 2 2 2 2 1 1 0 0 -0 -0 -0 0 -0 -0 1 2 2 2 3 3 2 1
14 15 15 13 14 15 16 16 15 16 15 13 10 7 6 6 6 5 4 4 3 2 2 2 2 2 2 1 1 1 1 0 -0 0 -0 0 0 0 0 0 1 1 2 2 3 3 3 2 1
14 16 16 16 15 15 16 16 16 15 16 15 13 10 8 6 5 6 6 5 4 4 2 2 2 2 1 1 2 2 1 1 1 0 0 0 0 -0 0 0 -0 1 2 2 2 2 2 2 2
14 13 14 16 16 18 15 20 17 15 15 16 12 13 11 10 9 6 7 7 6 4 3 2 1 1 1 1 2 2 2 2 1 1 0 -0 -0 0 0 0 0 1 1 2 2 2 2 2 3
14 14 15 15 17 18 18 19 18 17 17 16 15 13 11 10 10 9 9 7 6 5 4 3 2 1 1 1 1 2 2 1 1 1 2 2 2 1 1 1 1 2 2 2 2 2 2 2 2
12 13 14 17 18 21 18 18 19 16 17 15 15 13 11 10 11 11 11 10 9 8 7 5 3 2 1 1 1 1 1 2 3 4 4 3 4 5 5 5 4 4 4 4 5 5 5 5 5
13 15 19 20 20 21 20 20 16 15 16 15 14 13 10 10 11 11 11 11 10 8 7 7 6 3 1 1 1 1 1 2 2 4 4 5 6 6 7 7 7 6 7 7 7 7 8 8 8
13 14 19 23 23 21 20 20 18 15 13 14 15 14 13 12 11 11 11 10 9 8 7 7 8 8 5 1 1 1 1 2 2 3 4 4 6 8 8 9 8 9 9 9 9 10 10 10 10
14 15 15 19 25 22 20 18 16 16 15 15 15 14 12 12 11 11 11 10 9 8 7 7 7 7 8 7 2 2 2 2 3 5 6 7 9 9 10 10 10 10 11 11 11 11 11 11 11
13 12 16 18 24 25 20 20 18 17 16 14 14 14 13 12 11 11 11 10 9 8 7 7 7 7 7 6 5 2 1 3 5 7 9 9 11 11 11 12 11 12 12 12 11 11 12 12 12
16 15 16 15 18 22 24 20 16 14 14 14 14 14 13 13 12 11 10 10 9 9 8 8 8 8 7 6 5 4 4 5 6 8 10 11 11 12 12 12 12 12 12 12 12 12 12 13 14
14 15 14 17 20 20 20 19 15 14 14 14 14 13 14 12 12 12 10 10 10 10 9 9 9 9 8 7 7 7 7 7 8 9 11 12 13 13 12 12 12 13 13 12 12 13 13 14 14